User: anonymous   Login
Location: Champignolles
(47.0543°N, 4.5663°E)
Time: 19:50:33
(UTC+00:00)
Language:

Envisat - Orbit

View from above orbital plane
View from above orbital plane
View from above satellite
View from above satellite

Ground track
Ground track

The orbit data is extracted from the following two-line orbital elements,

1 27386U 02009A   21106.24398333  .00000024  00000-0  21337-4 0  9998
2 27386  98.1481 103.4826 0001372  87.2596 341.5607 14.38021001  2135
Epoch (UTC): 16 April 2021 05:51:20
Eccentricity: 0.0001372
inclination: 98.1481°
perigee height: 764 km
apogee height: 766 km
right ascension of ascending node: 103.4826°
argument of perigee: 87.2596°
revolutions per day: 14.38021001
mean anomaly at epoch: 341.5607°
orbit number at epoch: 213

The dashed part of the orbit path shows where the satellite is in the earth's shadow,  

DLR